| time (UTC) | temp C | wind direction | speed KPH | gust KPH | rain 1hr cm | rain 24hr cm | rain mn cm | humidity % | barometer mb |
| 20260906053057 | 16 | 27 | 0.0 | 4.8 | 0.00 | 0.05 | 0.00 | 91 | 1014.0 |
| 20260906051552 | 16 | 323 | 0.0 | 0.0 | 0.00 | 0.05 | 0.00 | 91 | 1014.1 |
| 20260906050107 | 16 | 323 | 0.0 | 1.6 | 0.00 | 0.05 | 0.00 | 91 | 1014.2 |
| 20260906044550 | 16 | 323 | 0.0 | 0.0 | 0.00 | 0.05 | 0.00 | 91 | 1014.2 |
| 20260906043104 | 16 | 289 | 0.0 | 1.6 | 0.00 | 0.05 | 0.00 | 92 | 1014.2 |
| 20260906041547 | 16 | 309 | 0.0 | 0.0 | 0.00 | 0.05 | 0.00 | 92 | 1014.1 |
| 20260906040105 | 16 | 305 | 0.0 | 0.0 | 0.00 | 0.05 | 0.00 | 93 | 1014.3 |
| 20260906034543 | 16 | 305 | 0.0 | 1.6 | 0.00 | 0.05 | 0.05 | 93 | 1014.2 |
| 20260906033044 | 16 | 345 | 0.0 | 0.0 | 0.00 | 0.05 | 0.05 | 94 | 1014.0 |
| 20260906031542 | 16 | 345 | 0.0 | 1.6 | 0.00 | 0.05 | 0.05 | 94 | 1014.0 |
| 20260906030041 | 16 | 345 | 0.0 | 1.6 | 0.00 | 0.05 | 0.05 | 94 | 1013.7 |
| 20260906024541 | 16 | 35 | 0.0 | 0.0 | 0.00 | 0.05 | 0.05 | 94 | 1014.0 |
| 20260906023057 | 16 | 35 | 0.0 | 0.0 | 0.00 | 0.05 | 0.05 | 93 | 1013.8 |
| 20260906021540 | 16 | 35 | 0.0 | 0.0 | 0.00 | 0.05 | 0.05 | 93 | 1013.9 |
| 20260906020038 | 16 | 35 | 0.0 | 0.0 | 0.00 | 0.05 | 0.05 | 94 | 1013.8 |
| 20260906014549 | 16 | 35 | 0.0 | 0.0 | 0.00 | 0.05 | 0.05 | 94 | 1013.8 |
| 20260906013036 | 17 | 35 | 0.0 | 0.0 | 0.00 | 0.05 | 0.05 | 94 | 1013.6 |
| 20260906011544 | 17 | 35 | 0.0 | 0.0 | 0.00 | 0.05 | 0.05 | 94 | 1013.4 |
| 20260906010033 | 17 | 35 | 0.0 | 0.0 | 0.03 | 0.05 | 0.05 | 94 | 1013.4 |
| 20260906004533 | 17 | 35 | 0.0 | 0.0 | 0.05 | 0.05 | 0.05 | 93 | 1013.3 |
| 20260906003031 | 17 | 35 | 0.0 | 0.0 | 0.05 | 0.05 | 0.05 | 93 | 1013.1 |
| 20260906001531 | 17 | 35 | 0.0 | 0.0 | 0.05 | 0.05 | 0.05 | 91 | 1012.9 |
| 20260906000030 | 18 | 229 | 0.0 | 6.4 | 0.03 | 0.03 | 0.03 | 89 | 1013.1 |
| 20260905234527 | 19 | 8 | 3.2 | 9.7 | 0.00 | 0.00 | 0.00 | 88 | 1012.7 |
| 20260905233027 | 19 | 349 | 0.0 | 0.0 | 0.00 | 0.00 | 0.00 | 85 | 1012.4 |
| 20260905231525 | 20 | 349 | 0.0 | 0.0 | 0.00 | 0.00 | 0.00 | 83 | 1012.5 |
| 20260905230028 | 20 | 308 | 0.0 | 0.0 | 0.00 | 0.00 | 0.00 | 81 | 1012.5 |
| 20260905224533 | 20 | 304 | 0.0 | 3.2 | 0.00 | 0.00 | 0.00 | 80 | 1012.3 |
| 20260905223032 | 20 | 308 | 0.0 | 1.6 | 0.00 | 0.00 | 0.00 | 81 | 1012.2 |
| 20260905221523 | 21 | 314 | 0.0 | 1.6 | 0.00 | 0.00 | 0.00 | 80 | 1012.0 |
| 20260905220022 | 21 | 348 | 0.0 | 3.2 | 0.00 | 0.00 | 0.00 | 79 | 1012.1 |
| 20260905214522 | 21 | 1 | 0.0 | 4.8 | 0.00 | 0.00 | 0.00 | 77 | 1012.1 |
| 20260905213021 | 21 | 338 | 1.6 | 9.7 | 0.00 | 0.00 | 0.00 | 75 | 1011.9 |
| 20260905211523 | 21 | 306 | 0.0 | 6.4 | 0.00 | 0.00 | 0.00 | 78 | 1011.9 |
| 20260905210021 | 21 | 319 | 0.0 | 3.2 | 0.00 | 0.00 | 0.00 | 79 | 1011.9 |
| 20260905204521 | 21 | 323 | 0.0 | 4.8 | 0.00 | 0.00 | 0.00 | 78 | 1011.9 |
| 20260905203019 | 21 | 280 | 0.0 | 3.2 | 0.00 | 0.00 | 0.00 | 79 | 1011.7 |
| 20260905201521 | 21 | 339 | 0.0 | 1.6 | 0.00 | 0.00 | 0.00 | 82 | 1011.6 |
| 20260905200017 | 21 | 337 | 0.0 | 0.0 | 0.00 | 0.00 | 0.00 | 81 | 1011.7 |
| 20260905194517 | 21 | 337 | 0.0 | 0.0 | 0.00 | 0.00 | 0.00 | 81 | 1011.7 |
| 20260905193020 | 21 | 340 | 0.0 | 0.0 | 0.00 | 0.00 | 0.00 | 80 | 1011.7 |
| 20260905191513 | 21 | 340 | 0.0 | 3.2 | 0.00 | 0.00 | 0.00 | 77 | 1011.5 |
| 20260905190036 | 22 | 335 | 0.0 | 4.8 | 0.00 | 0.00 | 0.00 | 75 | 1011.8 |
| 20260905184514 | 22 | 75 | 1.6 | 8.0 | 0.00 | 0.00 | 0.00 | 73 | 1011.8 |
| 20260905183014 | 21 | 303 | 1.6 | 6.4 | 0.00 | 0.00 | 0.00 | 77 | 1012.0 |
| 20260905181512 | 21 | 301 | 0.0 | 4.8 | 0.00 | 0.00 | 0.00 | 75 | 1012.0 |
| 20260905180006 | 21 | 25 | 0.0 | 6.4 | 0.00 | 0.00 | 0.00 | 73 | 1011.9 |
| 20260905174506 | 21 | 355 | 1.6 | 8.0 | 0.00 | 0.00 | 0.00 | 76 | 1012.1 |
| 20260905173006 | 21 | 353 | 0.0 | 6.4 | 0.00 | 0.00 | 0.00 | 74 | 1012.0 |
| 20260905171506 | 21 | 315 | 0.0 | 6.4 | 0.00 | 0.00 | 0.00 | 76 | 1012.2 |
| 20260905170003 | 21 | 290 | 4.8 | 9.7 | 0.00 | 0.00 | 0.00 | 75 | 1012.3 |
| 20260905164607 | 20 | 319 | 1.6 | 8.0 | 0.00 | 0.00 | 0.00 | 77 | 1012.3 |
| 20260905163059 | 20 | 30 | 3.2 | 9.7 | 0.00 | 0.00 | 0.00 | 77 | 1012.5 |
| 20260905161600 | 20 | 308 | 0.0 | 8.0 | 0.00 | 0.00 | 0.00 | 80 | 1012.5 |
| 20260905160116 | 20 | 53 | 6.4 | 17.7 | 0.00 | 0.00 | 0.00 | 77 | 1012.2 |
| 20260905154555 | 20 | 338 | 1.6 | 6.4 | 0.00 | 0.00 | 0.00 | 80 | 1012.2 |
| 20260905153100 | 20 | 23 | 0.0 | 6.4 | 0.00 | 0.00 | 0.00 | 80 | 1012.3 |
| 20260905151553 | 20 | 307 | 1.6 | 8.0 | 0.00 | 0.00 | 0.00 | 80 | 1012.4 |
| 20260905150054 | 19 | 8 | 1.6 | 9.7 | 0.00 | 0.00 | 0.00 | 81 | 1012.3 |
| 20260905144550 | 20 | 312 | 0.0 | 9.7 | 0.00 | 0.00 | 0.00 | 83 | 1012.2 |
| 20260905143048 | 19 | 6 | 3.2 | 11.3 | 0.00 | 0.00 | 0.00 | 83 | 1012.1 |
| 20260905141554 | 18 | 5 | 3.2 | 16.1 | 0.00 | 0.00 | 0.00 | 84 | 1012.1 |
| 20260905140047 | 18 | 303 | 1.6 | 9.7 | 0.00 | 0.00 | 0.00 | 86 | 1012.2 |
| 20260905134546 | 18 | 2 | 1.6 | 6.4 | 0.00 | 0.00 | 0.00 | 88 | 1012.1 |
| 20260905133046 | 17 | 30 | 0.0 | 4.8 | 0.00 | 0.00 | 0.00 | 91 | 1012.1 |
| 20260905131602 | 17 | 45 | 3.2 | 11.3 | 0.00 | 0.00 | 0.00 | 92 | 1012.0 |
| 20260905130049 | 16 | 311 | 1.6 | 6.4 | 0.00 | 0.00 | 0.00 | 94 | 1012.2 |
| 20260905124545 | 16 | 329 | 1.6 | 8.0 | 0.00 | 0.00 | 0.00 | 94 | 1012.4 |
| 20260905123044 | 16 | 19 | 1.6 | 4.8 | 0.00 | 0.00 | 0.00 | 95 | 1012.4 |
| 20260905121544 | 16 | 40 | 1.6 | 6.4 | 0.00 | 0.00 | 0.00 | 95 | 1012.5 |
| 20260905120043 | 15 | 332 | 0.0 | 6.4 | 0.00 | 0.00 | 0.00 | 95 | 1012.4 |
| 20260905114543 | 15 | 313 | 0.0 | 8.0 | 0.00 | 0.00 | 0.00 | 95 | 1012.2 |
| 20260905113042 | 15 | 10 | 1.6 | 6.4 | 0.00 | 0.00 | 0.00 | 95 | 1012.1 |
| 20260905111601 | 15 | 348 | 1.6 | 6.4 | 0.00 | 0.00 | 0.00 | 94 | 1011.8 |
| 20260905110039 | 15 | 34 | 3.2 | 6.4 | 0.00 | 0.00 | 0.00 | 94 | 1011.7 |
| 20260905104538 | 15 | 340 | 1.6 | 4.8 | 0.00 | 0.00 | 0.00 | 94 | 1011.5 |
| 20260905103040 | 15 | 11 | 0.0 | 3.2 | 0.00 | 0.00 | 0.00 | 93 | 1011.4 |
| 20260905101539 | 16 | 37 | 0.0 | 1.6 | 0.00 | 0.00 | 0.00 | 93 | 1011.4 |
| 20260905100035 | 16 | 29 | 0.0 | 3.2 | 0.00 | 0.00 | 0.00 | 92 | 1011.2 |
| 20260905094534 | 16 | 1 | 1.6 | 4.8 | 0.00 | 0.00 | 0.00 | 92 | 1011.1 |
| 20260905093035 | 16 | 342 | 1.6 | 8.0 | 0.00 | 0.00 | 0.00 | 91 | 1011.0 |
| 20260905091534 | 16 | 6 | 1.6 | 8.0 | 0.00 | 0.00 | 0.00 | 91 | 1011.0 |
| 20260905090029 | 16 | 357 | 3.2 | 8.0 | 0.00 | 0.00 | 0.00 | 90 | 1011.0 |
| 20260905084529 | 17 | 309 | 3.2 | 9.7 | 0.00 | 0.00 | 0.00 | 89 | 1010.8 |
| 20260905083023 | 17 | 325 | 3.2 | 9.7 | 0.00 | 0.00 | 0.00 | 88 | 1010.8 |
| 20260905081522 | 17 | 293 | 3.2 | 11.3 | 0.00 | 0.00 | 0.00 | 88 | 1010.9 |
| 20260905080018 | 17 | 347 | 4.8 | 14.5 | 0.00 | 0.00 | 0.00 | 87 | 1010.9 |
| 20260905074516 | 17 | 320 | 4.8 | 9.7 | 0.00 | 0.00 | 0.00 | 87 | 1011.1 |
| 20260905073019 | 17 | 34 | 3.2 | 9.7 | 0.00 | 0.00 | 0.00 | 86 | 1011.0 |
| 20260905071523 | 18 | 35 | 4.8 | 9.7 | 0.00 | 0.00 | 0.00 | 86 | 1011.2 |
| 20260905070011 | 18 | 349 | 1.6 | 9.7 | 0.00 | 0.00 | 0.00 | 86 | 1011.2 |
| 20260905064508 | 18 | 337 | 4.8 | 11.3 | 0.00 | 0.00 | 0.00 | 85 | 1011.2 |
| 20260905063006 | 18 | 6 | 3.2 | 9.7 | 0.00 | 0.00 | 0.00 | 84 | 1011.4 |
| 20260905061504 | 18 | 345 | 3.2 | 12.9 | 0.00 | 0.00 | 0.00 | 83 | 1011.5 |
| 20260905060003 | 18 | 18 | 4.8 | 9.7 | 0.00 | 0.00 | 0.00 | 84 | 1011.5 |
| 20260905054602 | 18 | 300 | 3.2 | 8.0 | 0.00 | 0.03 | 0.00 | 84 | 1011.7 |